Regional Weather Roundup
Issued by NWS

Home | Current Version | Previous Version | Text Only | Print | Product List | Glossary On
Versions: 1 2 3 4 5 6 7 8 9 10 11 12 13 14 15 16 17 18 19 20 21 22 23 24 25 26 27 28 29 30 31 32 33 34 35 36 37 38 39 40 41 42 43 44 45 46 47 48 49 50
000
ASUS43 KBIS 271310
RWRND

NORTH DAKOTA REGIONAL WEATHER ROUNDUP
NATIONAL WEATHER SERVICE BISMARCK ND
800 AM CDT THU APR 27 2017

NOTE: "FAIR" INDICATES FEW OR NO CLOUDS BELOW 12,000 FEET WITH NO
SIGNIFICANT WEATHER AND/OR OBSTRUCTIONS TO VISIBILITY.


NDZ001>003-009>011-017-271400-
NORTHWEST NORTH DAKOTA

CITY           SKY/WX    TMP DP  RH WIND       PRES   REMARKS
WILLISTON      FAIR      31  25  78 NE3       29.77R
MINOT          FAIR      28  23  81 NW9       29.77R WCI  19
MINOT AFB      SUNNY     27  22  81 N10       29.77R WCI  18
$$

NDZ018>021-031>035-040>046-271400-
SOUTHWEST NORTH DAKOTA

CITY           SKY/WX    TMP DP  RH WIND       PRES   REMARKS
BISMARCK       CLOUDY    32  26  78 NE6       29.76R
DICKINSON      FAIR      24  22  91 CALM      29.70S
GARRISON         N/A     28  23  81 N5        29.76R
HETTINGER ARPT CLOUDY    28  25  88 E5        29.71S
$$

NDZ004>008-012>016-024-026-027-054-271400-
NORTHEAST NORTH DAKOTA

CITY           SKY/WX    TMP DP  RH WIND       PRES   REMARKS
GRAND FORKS    MOSUNNY   24  21  88 NW9       29.74R WCI  14
GRND FRKS AFB  MOSUNNY   26  21  82 N8        29.74R WCI  17
DEVILS LAKE    FAIR      30  22  72 N12       29.74S
$$

NDZ022-023-025-028>030-036>039-047>053-271400-
SOUTHEAST NORTH DAKOTA

CITY           SKY/WX    TMP DP  RH WIND       PRES   REMARKS
FARGO          CLOUDY    26  21  81 N17       29.69F WCI  13
JAMESTOWN      FAIR      30  22  72 N10       29.72R
$$





USA.gov is the U.S. government's official web portal to all federal, state and local government web resources and services.